Vertical_Velocity
1 -1 0 1 -1 -2 -0 1 1 1 -0 0 -1 0 1 -0 -1 -1 -1 -1 -1 0 1 1 0 0 -1 -1 -1 -2 -2 -2 -2 -1 -1 -0 -0 1 -0 -1 -3 -2 -3
0 -4 2 0 1 0 2 1 1 1 0 -1 -1 -1 -1 -2 -1 1 -0 -0 -0 0 0 -0 -0 -1 -2 -2 -2 -1 -1 -0 -1 -2 -2 -0 -1 1 2 1 -2 -2 0
-0 -2 1 1 -1 -2 3 3 2 2 -1 -0 -1 -1 0 0 1 0 1 0 0 -0 -0 -1 -1 -2 -2 -2 -1 -1 -1 -2 -0 -2 -1 -2 -5 -2 2 1 2 2 -0
1 2 3 1 2 1 2 2 0 1 0 -0 2 2 -0 -1 1 -2 -1 -2 -0 -0 -1 -1 -1 -1 -0 -1 -1 -1 -0 -0 -0 -0 -2 -0 -0 -1 -5 2 -0 0 1
-0 -1 1 2 2 -2 2 -0 -1 0 -1 1 0 1 -2 -0 1 -1 -1 -1 -0 0 1 1 -0 1 -0 -0 -1 -1 -2 0 -1 0 -1 -2 -1 -1 -0 -7 2 -0 0
-3 0 3 1 1 -1 1 1 -0 2 0 1 1 2 1 -2 1 0 -0 0 -0 -1 -0 -0 1 1 1 -0 -1 0 -0 -0 -1 -1 -3 -3 -1 0 -2 -0 -7 0 -0
1 1 -2 1 1 -0 3 2 1 0 1 2 1 2 1 1 0 0 -1 -1 -0 1 2 2 2 1 0 2 2 1 0 -0 -1 -2 1 -1 -1 -1 -2 1 -3 -3 -5
4 -3 -1 1 1 0 3 1 2 2 2 2 1 2 1 3 1 2 2 2 -0 -2 1 -0 1 3 2 -0 0 1 1 -1 -1 0 -2 1 1 -1 1 -1 0 -2 -1
3 2 1 1 -1 1 2 4 4 2 2 1 -0 2 1 1 2 4 2 -0 -0 2 2 1 1 -1 -1 -1 1 0 3 1 2 -0 2 -1 1 2 1 1 1 1 -2
1 2 -1 3 -0 1 1 2 2 -1 4 1 3 -1 2 2 1 3 0 3 2 1 -0 1 0 1 2 3 1 -0 0 1 0 -3 -2 -3 1 1 1 3 2 2 -1
1 -2 3 5 0 2 2 2 2 3 3 6 1 4 4 2 2 -0 1 1 -0 2 2 1 2 0 1 -2 0 -1 -0 -1 -2 -2 -1 -1 -2 -3 2 1 1 2 2
-2 1 2 5 3 3 0 1 2 3 3 -0 2 -2 2 5 1 3 1 2 -1 0 -1 5 2 3 2 -1 -1 -2 -2 -2 -1 -0 0 -0 0 -3 1 -1 1 2 -0
-3 -1 4 1 7 -0 2 6 4 4 1 3 4 2 4 3 5 4 5 4 3 3 -1 2 -0 2 2 3 3 3 1 0 -1 0 1 2 -2 -0 -1 -2 -1 -3 1
-4 4 1 3 2 3 5 3 -2 4 5 3 5 5 5 6 6 6 4 5 2 0 2 2 0 1 3 2 3 4 1 1 -0 -2 -2 -1 -4 -0 -11 -1 -1 -2 -0
6 0 1 -1 -0 2 1 4 4 7 2 5 7 9 12 13 11 8 6 4 1 -2 -2 -1 -0 3 5 2 3 1 -2 -1 -1 -1 -1 -2 -5 0 0 -7 -3 -2 -4
7 7 11 8 7 11 10 10 10 13 10 10 10 6 12 10 13 4 9 2 2 1 1 1 0 -3 -1 -0 2 -1 -1 -3 -5 -3 -2 2 -1 0 -3 1 -1 -1 -4
5 -1 2 14 6 7 10 7 4 3 7 4 3 0 1 4 10 12 7 4 2 2 2 1 3 1 1 3 -0 -6 -6 -0 -2 -4 -6 -4 -3 -0 -1 -1 -1 -3 1
4 -0 -3 5 3 -3 2 1 -3 -7 3 1 3 -1 -2 4 2 10 13 7 7 6 3 2 2 -5 4 3 -4 1 -8 4 -1 -6 -6 -4 4 -3 1 0 -3 0 -2
5 -5 2 -0 4 4 2 6 6 7 3 -3 3 9 2 1 -5 1 6 6 5 2 1 3 4 2 -2 3 -2 1 -4 -3 1 -1 -3 -7 -5 7 -1 -10 -1 -1 -2
1 3 4 5 -1 -1 4 2 -1 1 4 6 -0 2 5 5 5 -1 -0 -1 1 -4 2 3 -2 4 1 -4 -3 -3 2 -2 5 3 -0 -3 -9 3 1 -7 -3 -3 6
3 -2 -3 3 1 -1 -1 3 5 3 5 7 2 -3 5 -3 2 -6 -9 3 2 4 -5 -2 2 2 2 0 -1 5 -5 -1 -0 -8 -6 3 -2 -4 1 -2 -4 1 0
4 -0 -3 -3 2 -2 0 1 0 2 2 -4 1 -5 -7 -5 -0 -3 -2 8 -4 2 -2 -5 1 -3 1 8 0 3 -4 -2 -1 -2 -2 1 -2 -0 -2 1 2 -4 0
0 7 3 -3 -3 3 0 -3 -3 -6 -1 -1 -4 2 1 -2 -6 2 5 -1 1 -1 1 0 -2 -2 -3 -2 6 -2 -1 -1 -6 2 -1 -1 0 2 -5 -3 -3 8 -2
-4 -1 -3 0 -4 -3 -1 -2 -1 2 0 -5 1 -1 -0 -0 -4 3 1 1 1 -2 -2 -1 -1 -2 -1 -2 -1 -5 4 2 -3 -0 -4 -1 -7 -1 -4 -1 3 3 2
1 1 -1 -1 -1 -1 0 -2 1 -2 1 -0 -1 2 1 0 -2 -1 2 -2 1 3 -2 -1 -4 -3 1 -2 -2 -1 3 -1 1 -0 -2 -4 -1 -1 1 2 3 2 2
-0 -1 -2 -3 1 -0 -1 0 -1 -2 -2 -0 0 -1 -1 0 -0 -1 0 1 2 1 -1 -1 -2 4 -4 -0 2 -1 -2 0 3 -4 -4 -1 0 -1 1 2 0 -1 -2
Height
3063 3061 3061 3061 3061 3061 3061 3063 3065 3067 3068 3070 3072 3073 3074 3076 3078 3079 3080 3082 3083 3084 3085 3086 3088 3088 3089 3090 3091 3091 3092 3092 3092 3092 3092 3092 3093 3093 3093 3093 3093 3093 3094
3055 3054 3055 3055 3055 3055 3056 3057 3059 3061 3062 3064 3066 3067 3069 3071 3072 3074 3075 3077 3079 3080 3081 3083 3084 3085 3086 3087 3087 3087 3088 3089 3089 3089 3089 3089 3090 3089 3089 3089 3089 3090 3089
3048 3048 3049 3050 3050 3050 3050 3051 3053 3055 3057 3058 3060 3062 3064 3065 3067 3069 3071 3072 3074 3076 3077 3079 3080 3081 3082 3082 3083 3084 3084 3085 3085 3085 3085 3085 3084 3084 3084 3084 3084 3085 3085
3043 3043 3044 3044 3043 3043 3044 3045 3047 3049 3050 3051 3054 3056 3058 3060 3062 3063 3065 3067 3069 3071 3072 3074 3075 3075 3076 3077 3078 3079 3080 3080 3081 3081 3081 3080 3080 3079 3079 3080 3079 3079 3080
3038 3038 3038 3037 3037 3036 3037 3039 3040 3042 3044 3045 3048 3050 3051 3053 3055 3057 3059 3061 3063 3064 3066 3067 3068 3069 3071 3072 3073 3073 3074 3074 3075 3076 3076 3076 3075 3075 3075 3073 3073 3074 3074
3034 3033 3033 3031 3030 3030 3031 3032 3033 3036 3038 3039 3041 3043 3044 3045 3048 3050 3052 3054 3056 3057 3059 3060 3061 3062 3064 3066 3067 3068 3068 3069 3069 3070 3070 3070 3070 3070 3070 3069 3068 3068 3068
3028 3028 3027 3025 3024 3024 3025 3026 3027 3029 3031 3033 3034 3036 3037 3039 3041 3042 3044 3046 3048 3050 3051 3052 3054 3055 3056 3058 3059 3060 3061 3062 3062 3062 3063 3064 3064 3064 3064 3063 3062 3062 3062
3022 3022 3021 3019 3018 3018 3019 3020 3021 3022 3024 3025 3027 3028 3029 3031 3033 3035 3036 3037 3039 3041 3043 3044 3045 3046 3047 3048 3050 3051 3052 3053 3054 3055 3055 3056 3057 3057 3057 3056 3055 3055 3055
3014 3015 3014 3013 3013 3012 3013 3013 3014 3014 3016 3017 3018 3020 3021 3022 3024 3026 3027 3028 3031 3033 3033 3033 3034 3036 3037 3038 3040 3041 3042 3043 3044 3045 3046 3047 3048 3049 3049 3049 3048 3047 3046
3009 3009 3009 3008 3007 3006 3006 3006 3007 3007 3008 3009 3010 3011 3012 3013 3015 3016 3017 3019 3020 3021 3022 3022 3023 3024 3026 3027 3028 3029 3031 3032 3032 3033 3034 3036 3037 3038 3039 3040 3040 3039 3038
3003 3003 3002 3001 3000 3000 2999 2999 3000 3000 3000 3001 3001 3002 3003 3003 3004 3005 3006 3007 3007 3009 3009 3010 3010 3011 3013 3015 3017 3017 3019 3021 3022 3023 3024 3025 3025 3025 3027 3028 3029 3029 3029
2996 2996 2995 2994 2994 2993 2992 2992 2990 2991 2991 2991 2991 2992 2993 2993 2993 2994 2994 2994 2995 2996 2996 2998 2998 3000 3001 3002 3004 3005 3007 3009 3010 3011 3012 3012 3014 3014 3015 3016 3017 3018 3018
2986 2987 2986 2985 2985 2984 2984 2982 2982 2981 2981 2980 2981 2981 2981 2981 2981 2982 2982 2982 2983 2983 2985 2986 2987 2988 2990 2991 2993 2994 2996 2998 2999 3001 3002 3003 3004 3004 3005 3006 3006 3008 3007
2973 2973 2972 2972 2972 2971 2970 2969 2969 2969 2969 2969 2968 2969 2968 2968 2968 2968 2969 2970 2969 2971 2972 2974 2976 2978 2980 2982 2983 2985 2987 2989 2990 2992 2993 2993 2994 2995 2998 2998 2998 2997 2998
2958 2959 2959 2958 2957 2956 2955 2954 2955 2954 2955 2955 2955 2955 2955 2955 2954 2955 2956 2958 2959 2961 2963 2965 2967 2970 2971 2973 2974 2975 2976 2978 2980 2981 2982 2983 2984 2986 2986 2987 2987 2987 2987
2945 2944 2944 2943 2943 2943 2942 2941 2941 2941 2942 2941 2942 2943 2944 2945 2945 2944 2945 2948 2950 2954 2956 2958 2960 2962 2963 2964 2965 2966 2967 2967 2968 2969 2971 2972 2974 2974 2975 2975 2975 2975 2974
2934 2934 2934 2932 2931 2932 2932 2932 2932 2933 2933 2934 2935 2936 2937 2938 2940 2939 2939 2940 2942 2944 2946 2948 2950 2952 2953 2954 2955 2956 2957 2957 2957 2959 2961 2962 2962 2961 2962 2962 2961 2961 2962
2932 2930 2930 2929 2926 2926 2927 2927 2927 2927 2926 2927 2927 2928 2929 2931 2933 2933 2932 2933 2934 2935 2937 2938 2939 2940 2942 2942 2943 2943 2945 2945 2944 2945 2947 2949 2949 2949 2949 2950 2950 2950 2951
2931 2929 2927 2925 2923 2922 2921 2920 2920 2919 2919 2919 2919 2919 2921 2923 2924 2924 2925 2924 2924 2925 2926 2927 2929 2930 2932 2932 2932 2932 2933 2933 2934 2933 2933 2936 2937 2937 2936 2937 2937 2937 2937
2929 2926 2925 2922 2920 2919 2918 2918 2917 2915 2914 2913 2914 2915 2916 2916 2916 2916 2916 2916 2916 2917 2918 2919 2919 2919 2919 2921 2921 2922 2921 2921 2923 2922 2923 2923 2924 2925 2923 2922 2924 2923 2925
2926 2923 2921 2918 2916 2915 2914 2912 2911 2910 2910 2907 2907 2907 2908 2907 2907 2906 2908 2909 2909 2909 2907 2910 2909 2909 2909 2908 2910 2909 2909 2910 2909 2909 2911 2910 2909 2910 2910 2910 2909 2911 2911
2922 2920 2918 2914 2912 2910 2909 2907 2905 2903 2901 2900 2899 2899 2900 2900 2900 2900 2900 2899 2898 2897 2897 2899 2898 2900 2900 2898 2897 2897 2898 2898 2896 2895 2894 2897 2897 2896 2896 2896 2897 2897 2897
2918 2914 2910 2908 2907 2904 2900 2899 2897 2896 2895 2894 2894 2891 2892 2891 2891 2890 2890 2888 2888 2887 2887 2887 2887 2889 2887 2888 2885 2884 2884 2883 2882 2881 2880 2881 2882 2882 2882 2882 2883 2882 2882
2911 2908 2905 2903 2901 2898 2895 2893 2891 2888 2887 2886 2885 2884 2882 2881 2881 2879 2878 2877 2876 2875 2875 2873 2873 2873 2872 2872 2870 2870 2869 2868 2869 2868 2867 2867 2867 2866 2867 2867 2867 2867 2868
2905 2901 2898 2896 2894 2890 2887 2884 2880 2878 2876 2874 2874 2873 2870 2868 2867 2866 2864 2863 2862 2861 2859 2858 2858 2858 2857 2857 2855 2855 2855 2855 2854 2852 2851 2851 2852 2852 2851 2852 2852 2852 2853
2895 2891 2887 2884 2882 2879 2875 2872 2868 2864 2863 2862 2860 2857 2855 2853 2852 2851 2850 2849 2847 2845 2844 2843 2843 2844 2842 2841 2840 2839 2838 2838 2838 2837 2836 2837 2837 2837 2837 2837 2837 2837 2838